#timestamp,LO_Frequency,Hit,StdDev 
1666393215.1,286047000.1,N
1666393216.0,286047011.9,Y
1666393235.8,286047002.5,P
1666393255.7,286047002.3,N
1666393275.5,286047001.5,N
1666393295.3,286047001.5,N
1666393315.2,286047002.6,N
1666393335.0,286047001.9,N
1666393335.9,286047001.9,N
1666393355.8,286047002.2,N
1666393375.6,286047001.5,N
1666393395.4,286047001.5,N
1666393415.3,286047003.9,Y
1666393435.1,286047002.2,P
1666393455.9,286047004.4,P
1666393475.7,286047002.6,N
1666393495.5,286047002.2,N
1666393515.4,286047001.9,N
1666393535.2,286047004.1,Y
1666393555.0,286046999.2,P
1666393556.0,286046999.2,N
1666393575.8,286046997.3,N
1666393595.6,286046997.8,N
1666393615.5,286046997.3,N
1666393635.3,286046995.6,N
1666393655.1,286046997.1,N
1666393675.9,286046999.5,N
1666393695.7,286046998.4,N
1666393715.6,286047001.2,N
1666393735.4,286047000.7,N
1666393755.2,286047000.1,N
1666393775.1,286047000.3,N
1666393776.0,286047000.3,N
1666393795.8,286047000.6,N
1666393815.6,286047000.3,N
1666393835.5,286046998.5,N
1666393855.3,286046998.4,N
1666393875.2,286046999.2,N
1666393895.9,286046998.3,N
1666393915.7,286046998.1,N
1666393935.6,286047000.8,N
1666393955.4,286047000.6,N
1666393975.2,286047000.0,N
1666393995.1,286047001.4,N
1666393996.0,286047001.4,N
1666394015.8,286047002.1,N
1666394035.7,286046998.6,N
1666394055.5,286046996.6,N
1666394075.3,286046997.2,N
1666394095.2,286046997.3,N
1666394115.0,286046999.5,N
1666394115.9,286046999.5,N
1666394135.7,286047001.2,N
1666394155.6,286046998.7,N
1666394175.4,286046998.6,N
1666394195.3,286047000.2,N
1666394215.1,286046998.5,N
1666394216.0,286046998.5,N
1666394235.8,286046999.7,N
1666394255.7,286046999.9,N
1666394275.5,286047002.3,N
1666394295.3,286047002.6,N
1666394315.2,286047001.0,N
1666394335.0,286047002.7,N
1666394335.9,286047002.7,N
1666394355.8,286047002.7,N
1666394375.6,286047002.2,N
1666394395.4,286047004.0,N
1666394415.3,286047001.6,N
1666394435.1,286047002.2,N
1666394455.8,286047002.0,N
1666394475.7,286046999.7,N
1666394495.5,286046998.3,N
1666394515.4,286046998.2,N
1666394535.2,286046999.3,N
1666394555.0,286046999.3,N
1666394555.9,286046999.3,N
1666394575.8,286047000.9,N
1666394595.6,286047002.6,N
1666394615.5,286047002.5,N
1666394635.3,286047000.2,N
1666394655.1,286047002.2,N
1666394675.9,286047003.7,N
1666394695.7,286047003.9,N
1666394715.5,286047004.2,N
1666394735.4,286047006.0,Y
1666394755.2,286047003.5,P
1666394775.1,286047003.0,N
1666394776.0,286047003.0,P
1666394795.8,286047004.0,Y
1666394815.6,286047000.7,P
1666394835.5,286047000.2,N
1666394855.3,286046999.7,N
1666394875.2,286047001.8,N
1666394895.9,286047003.7,Y
1666394915.7,286047002.6,P
1666394935.6,286046998.2,N
1666394955.4,286046999.2,N
1666394975.3,286046998.2,N
1666394995.1,286046996.8,N
1666394996.0,286046996.8,N
1666395015.8,286046996.6,N
1666395035.7,286046999.5,N
1666395055.5,286046997.8,N
1666395075.3,286046995.1,N
1666395095.2,286046997.6,N
1666395115.0,286046998.3,N
1666395115.9,286046998.3,N
1666395135.8,286046996.6,N
1666395155.6,286046996.5,N
1666395175.4,286046998.6,N
1666395195.3,286046996.6,N
1666395215.1,286046997.3,N
1666395235.8,286046997.5,N
1666395255.7,286046997.6,N
1666395275.5,286046995.4,N
1666395295.4,286046995.8,N
1666395315.2,286046995.1,N
1666395335.0,286046998.5,N
1666395335.9,286046998.5,N
1666395355.8,286046996.9,N
1666395375.6,286046998.5,N
1666395395.5,286047000.9,N
1666395415.3,286047000.6,N
1666395435.1,286047002.6,N
1666395455.9,286047001.5,N
1666395475.7,286047001.8,N
1666395495.5,286047002.5,N
1666395515.4,286047001.9,N
1666395535.2,286047001.9,N
1666395555.1,286047001.8,N
1666395556.0,286047001.8,N
1666395575.8,286047002.0,N
1666395595.6,286047004.1,N
1666395615.5,286047003.5,N
1666395635.3,286047003.1,N
1666395655.1,286047003.2,N
1666395675.9,286047003.4,N
1666395695.7,286047003.9,N
1666395715.6,286047003.7,N
1666395735.4,286047000.9,N
1666395755.2,286046997.3,N
1666395775.1,286046997.4,N
1666395776.0,286046997.4,N
1666395795.8,286046995.3,N
1666395815.7,286046998.0,N
1666395835.5,286046997.2,N
1666395855.3,286046997.8,N
1666395875.2,286046997.2,N
1666395895.0,286046997.8,N
1666395895.9,286046997.8,N
1666395915.8,286046995.1,N
1666395935.6,286046997.3,N
1666395955.4,286046997.0,N
1666395975.3,286046998.6,N
1666395995.1,286046999.2,N
1666396015.8,286046998.4,N
1666396035.7,286047000.9,N
1666396055.5,286047000.8,N
1666396075.4,286046999.3,N
1666396095.2,286046998.7,N
1666396115.0,286047001.2,N
1666396115.9,286047001.2,N
1666396135.8,286046998.3,N
1666396155.6,286047000.8,N
1666396175.4,286047001.1,N
1666396195.3,286047002.4,N
1666396215.1,286046999.7,N
1666396235.9,286047002.5,N
1666396255.7,286047000.9,N
1666396275.5,286047001.1,N
1666396295.4,286046998.5,N
1666396315.2,286047001.0,N
1666396335.1,286047011.9,Y
1666396336.0,286046998.6,P
1666396355.8,286047000.2,N
1666396375.6,286046999.9,N
1666396395.5,286047001.2,N
1666396415.3,286046999.8,N
1666396435.1,286047004.2,Y
1666396455.9,286047003.6,P
1666396475.7,286047004.6,N
1666396495.6,286047003.6,N
1666396515.4,286047003.4,N
1666396535.2,286047004.3,N
1666396555.1,286047004.1,N
1666396556.0,286047004.1,N
1666396575.8,286047004.1,N
1666396595.7,286047004.3,Y
1666396615.5,286046997.0,P
1666396635.3,286046997.0,N
1666396655.2,286046999.3,N
1666396675.0,286046999.1,N
1666396675.9,286046999.1,N
1666396695.7,286046998.7,N
1666396715.6,286046998.5,N
1666396735.4,286047002.5,N
1666396755.3,286047002.4,N
1666396775.1,286047002.7,N
1666396776.0,286047002.7,N
1666396795.8,286046999.9,N
